Heute – Wetterdaten der letzten 3 Stunden im 5 Min. Intervall

Wetterdaten der letzten 3 Stunden im 5 Min. Intervall
DatumAussentemperaturLuftdruckLuftfeuchtigkeitWindstärke Regen
19.02.20, 05:25 4.8 °C 1013.9 hPa 92 % 8.6 km/h 3.8 mm
19.02.20, 05:20 4.8 °C 1013.9 hPa 94 % 5.0 km/h 3.8 mm
19.02.20, 05:15 4.8 °C 1013.6 hPa 94 % 0.0 km/h 3.8 mm
19.02.20, 05:10 4.8 °C 1013.5 hPa 94 % 1.8 km/h 3.8 mm
19.02.20, 05:05 4.8 °C 1013.6 hPa 93 % 3.2 km/h 3.6 mm
19.02.20, 04:55 4.9 °C 1013.4 hPa 93 % 5.0 km/h 2.8 mm
19.02.20, 04:50 4.9 °C 1013.2 hPa 93 % 3.2 km/h 2.8 mm
19.02.20, 04:45 4.9 °C 1013.1 hPa 93 % 1.8 km/h 2.8 mm
19.02.20, 04:40 4.9 °C 1013.1 hPa 93 % 0.0 km/h 2.8 mm
19.02.20, 04:35 5.1 °C 1012.9 hPa 93 % 3.2 km/h 2.8 mm
19.02.20, 04:30 5.1 °C 1013.0 hPa 93 % 13.7 km/h 2.8 mm
19.02.20, 04:25 5.2 °C 1013.0 hPa 93 % 5.0 km/h 2.8 mm
19.02.20, 04:20 5.2 °C 1012.9 hPa 93 % 8.6 km/h 2.6 mm
19.02.20, 04:15 5.3 °C 1012.8 hPa 92 % 5.0 km/h 2.6 mm
19.02.20, 04:10 5.4 °C 1012.9 hPa 92 % 3.2 km/h 2.4 mm
19.02.20, 04:05 5.5 °C 1012.9 hPa 92 % 5.0 km/h 2.4 mm
19.02.20, 03:55 5.5 °C 1012.6 hPa 92 % 0.0 km/h 2.0 mm
19.02.20, 03:50 5.5 °C 1012.7 hPa 92 % 5.0 km/h 1.8 mm
19.02.20, 03:45 5.5 °C 1012.6 hPa 92 % 3.2 km/h 1.8 mm
19.02.20, 03:40 5.5 °C 1012.6 hPa 92 % 3.2 km/h 1.8 mm
19.02.20, 03:35 5.5 °C 1012.6 hPa 92 % 5.0 km/h 1.8 mm
19.02.20, 03:30 5.4 °C 1012.7 hPa 92 % 8.6 km/h 1.8 mm
19.02.20, 03:20 5.5 °C 1012.7 hPa 93 % 1.8 km/h 1.8 mm
19.02.20, 03:15 5.5 °C 1012.6 hPa 93 % 6.8 km/h 1.8 mm
19.02.20, 03:10 5.6 °C 1012.7 hPa 93 % 1.8 km/h 1.8 mm
19.02.20, 03:05 5.6 °C 1012.7 hPa 93 % 16.9 km/h 1.8 mm
19.02.20, 02:55 5.7 °C 1012.7 hPa 92 % 1.8 km/h 1.8 mm
19.02.20, 02:50 5.7 °C 1012.8 hPa 93 % 8.6 km/h 1.8 mm
19.02.20, 02:45 5.7 °C 1012.8 hPa 93 % 1.8 km/h 1.8 mm
19.02.20, 02:40 5.7 °C 1012.9 hPa 92 % 8.6 km/h 1.8 mm
19.02.20, 02:35 5.8 °C 1012.9 hPa 92 % 1.8 km/h 1.8 mm
19.02.20, 02:30 5.9 °C 1013.1 hPa 92 % 11.9 km/h 1.8 mm